Regional Weather Roundup
Issued by NWS

Home | Current Version | Previous Version | Text Only | Print | Product List | Glossary On
Versions: 1 2 3 4 5 6 7 8 9 10 11 12 13 14 15 16 17 18 19 20 21 22 23 24 25 26
000
ASPQ40 PGUM 121412
RWRPQ
WEATHER ROUNDUP FOR THE MARIANAS AND MICRONESIA
NATIONAL WEATHER SERVICE TIYAN GU
1200 AM CHST WED DEC 13 2017

GUZ001>004-121500-
MARIANA ISLANDS-

CITY           SKY/WX    TMP DP  RH WIND       PRES   REMARKS
GUAM AIRPORT   PTCLDY    81  77  89 E3        29.85F
ANDERSEN AFB   PTCLDY    79  73  83 E9        29.87F
ROTA AIRPORT   NOT AVBL
TINIAN AP      NOT AVBL
SAIPAN AP      PTCLDY    81  77  89 E7        29.85F

$$

PMZ161-121500-
REPUBLIC OF PALAU-

CITY           SKY/WX    TMP DP  RH WIND       PRES   REMARKS
KOROR AP       MOCLDY    81  77  89 W8        29.75F
KOROR WSO      MOCLDY    82  77  83 W5        29.76F HX  91

$$

PMZ171>174-121500-
FEDERATED STATES OF MICRONESIA-

CITY           SKY/WX    TMP DP  RH WIND       PRES   REMARKS
YAP AIRPORT    MOCLDY    81  79  94 VRB3      29.76F
CHUUK AP       CLOUDY    81  77  89 VRB6      29.73F
POHNPEI AP     NOT AVBL
POHNPEI WSO    MOCLDY    81  77  89 E9        29.76F
KOSRAE AP      NOT AVBL

$$

PMZ181-121500-
REPUBLIC OF THE MARSHALL ISLANDS-

CITY           SKY/WX    TMP DP  RH WIND       PRES   REMARKS
KWAJALEIN AP   MOCLDY    82  73  74 E20       29.78S
MAJURO AP      NOT AVBL
MAJURO WSO     SHOWER    81  77  89 E13       29.74F

$$





USA.gov is the U.S. government's official web portal to all federal, state and local government web resources and services.